Chadron, NE

8:29 PM MDT on May 27, 2018 (GMT -0600)
Chadron Municipal

Weather History for KCDR - January, 2013

Change the Weather History Date:

Thursday, January 3, 2013

  Actual Average Record
Temperature  
Mean Temperature 16 °F 24 °F  
Max Temperature 29 °F 38 °F 66 °F (1998)
Min Temperature 2 °F 10 °F -21 °F (1947)
Degree Days  
Heating Degree Days 49 41  
Month to date heating degree days 140 123  
Since 1 July heating degree days 2851 3065  
Cooling Degree Days 0 0  
Month to date cooling degree days 0 0  
Year to date cooling degree days 0 0  
Moisture  
Dew Point 7 °F    
Average Humidity 75    
Maximum Humidity 91    
Minimum Humidity 58    
Precipitation  
Precipitation 0.00 in 0.01 in 1.07 in (1949)
Month to date precipitation T 0.03  
Year to date precipitation T 0.03  
Sea Level Pressure  
Sea Level Pressure 30.39 in    
Wind  
Wind Speed 7 mph (WSW)    
Max Wind Speed 12 mph    
Max Gust Speed 15 mph    
Visibility 10 miles    
Events      
T = Trace of Precipitation, MM = Missing Value Source: NWS Daily Summary

Daily Weather History Graph

Daily Weather History Graph

Search for Another Location

Airport or City:

Astronomy

Jan. 03, 2013 Rise Set
Actual Time 7:23 AM MST 4:31 PM MST
Civil Twilight 6:51 AM MST 5:03 PM MST
Nautical Twilight 6:15 AM MST 5:38 PM MST
Astronomical Twilight 5:41 AM MST 6:12 PM MST
Moon 11:19 PM MST (1/3) 10:26 AM MST (1/3)
Length of Visible Light 10h 11m
Length of Day
9h 07m
Waning Gibbous, 65% of the Moon is Illuminated
Jan 3
Waning Gibbous
Jan 4
Last Quarter
Jan 11
New
Jan 18
First Quarter
Jan 26
Full

Hourly Weather History & Observations

Time (MST) Temp. Windchill Dew Point Humidity Pressure Visibility Wind Dir Wind Speed Gust Speed Precip Events Conditions
12:53 AM 15.1 °F 6.4 °F 10.9 °F 84% 30.47 in 10.0 mi WSW 5.8 mph - N/A   Overcast
1:40 AM 15.8 °F - 10.4 °F 79% 30.32 in 10.0 mi Calm Calm - N/A   Overcast
1:53 AM 14.0 °F 8.2 °F 10.0 °F 84% 30.48 in 10.0 mi SW 3.5 mph - N/A   Overcast
2:33 AM 8.6 °F 0.1 °F 6.8 °F 92% 30.31 in 10.0 mi SW 4.6 mph - N/A   Scattered Clouds
2:53 AM 7.0 °F -3.3 °F 5.0 °F 92% 30.49 in 10.0 mi WSW 5.8 mph - N/A   Partly Cloudy
3:12 AM 8.6 °F -3.7 °F 6.8 °F 92% 30.30 in 10.0 mi WSW 8.1 mph - N/A   Mostly Cloudy
3:53 AM 12.0 °F 4.1 °F 9.0 °F 88% 30.47 in 10.0 mi West 4.6 mph - N/A   Overcast
4:31 AM 6.8 °F -5.9 °F 3.2 °F 85% 30.29 in 10.0 mi WSW 8.1 mph - N/A   Scattered Clouds
4:53 AM 7.0 °F -7.5 °F 3.9 °F 87% 30.48 in 10.0 mi WSW 10.4 mph - N/A   Clear
5:11 AM 8.6 °F -2.6 °F 6.8 °F 92% 30.28 in 10.0 mi SW 6.9 mph - N/A   Mostly Cloudy
5:36 AM 6.8 °F -4.8 °F 3.2 °F 85% 30.27 in 10.0 mi WSW 6.9 mph - N/A   Scattered Clouds
5:53 AM 3.0 °F -11.5 °F -0.0 °F 87% 30.48 in 9.0 mi WSW 9.2 mph - N/A   Clear
6:53 AM 5.0 °F -4.1 °F 1.9 °F 87% 30.47 in 9.0 mi SW 4.6 mph - N/A   Clear
7:53 AM 9.0 °F -5.1 °F 3.0 °F 77% 30.45 in 10.0 mi WSW 10.4 mph - N/A   Clear
8:53 AM 12.0 °F -0.4 °F 3.9 °F 70% 30.45 in 10.0 mi WSW 9.2 mph - N/A   Clear
9:53 AM 17.1 °F 5.8 °F 6.1 °F 62% 30.44 in 10.0 mi WSW 9.2 mph - N/A   Clear
10:53 AM 19.9 °F 10.1 °F 8.1 °F 60% 30.42 in 10.0 mi WSW 8.1 mph - N/A   Clear
11:53 AM 21.9 °F 11.7 °F 10.0 °F 60% 30.39 in 10.0 mi West 9.2 mph - N/A   Clear
12:53 PM 24.1 °F 14.4 °F 12.9 °F 62% 30.37 in 10.0 mi WSW 9.2 mph - N/A   Clear
1:53 PM 26.1 °F 20.5 °F 15.1 °F 63% 30.35 in 10.0 mi SW 4.6 mph - N/A   Clear
2:53 PM 28.0 °F 24.2 °F 16.0 °F 61% 30.36 in 10.0 mi SW 3.5 mph - N/A   Clear
3:53 PM 27.0 °F - 15.1 °F 61% 30.35 in 10.0 mi Calm Calm - N/A   Clear
4:53 PM 24.1 °F 19.7 °F 14.0 °F 65% 30.35 in 10.0 mi WSW 3.5 mph - N/A   Clear
5:53 PM 15.1 °F 7.7 °F 9.0 °F 77% 30.40 in 10.0 mi West 4.6 mph - N/A   Clear
6:53 PM 14.0 °F 2.9 °F 9.0 °F 80% 30.39 in 10.0 mi WSW 8.1 mph - N/A   Clear
7:53 PM 10.9 °F -1.8 °F 6.1 °F 81% 30.40 in 10.0 mi WSW 9.2 mph - N/A   Clear
8:53 PM 10.0 °F -1.9 °F 5.0 °F 80% 30.38 in 10.0 mi WSW 8.1 mph - N/A   Clear
9:53 PM 10.0 °F -2.9 °F 3.9 °F 76% 30.36 in 10.0 mi WSW 9.2 mph - N/A   Clear
10:53 PM 10.9 °F 1.4 °F 3.9 °F 73% 30.35 in 10.0 mi SW 5.8 mph - N/A   Clear
11:53 PM 12.9 °F 5.2 °F 3.9 °F 67% 30.33 in 10.0 mi SW 4.6 mph - N/A   Clear